<?xml version="1.0" encoding="UTF-8" standalone="no" ?>
<gpx xmlns="http://www.topografix.com/GPX/1/1" xmlns:xsi="http://www.w3.org/2001/XMLSchema-instance" xsi:schemaLocation="http://www.topografix.com/GPX/1/1 http://www.topografix.com/GPX/1/1/gpx.xsd" version="1.1" creator="VisuGPX - https://www.visugpx.com">
  <metadata>
    <name>Circuit Halte à la douane-Hestrud</name>
    <desc><![CDATA[Balade en Avesnois]]></desc>
  </metadata>
  <trk>
    <name><![CDATA[track]]></name>
    <trkseg>
      <trkpt lat="50.19942" lon="4.1542">
        <ele>179</ele>
        <time>2009-02-25T13:07:44Z</time>
      </trkpt>
      <trkpt lat="50.19923" lon="4.153">
        <ele>176</ele>
        <time>2009-02-25T13:07:44Z</time>
      </trkpt>
      <trkpt lat="50.1995" lon="4.15291">
        <ele>175</ele>
        <time>2009-02-25T13:07:44Z</time>
      </trkpt>
      <trkpt lat="50.1996" lon="4.15283">
        <ele>175</ele>
        <time>2009-02-25T13:07:44Z</time>
      </trkpt>
      <trkpt lat="50.19965" lon="4.15226">
        <ele>177</ele>
        <time>2009-02-25T13:07:44Z</time>
      </trkpt>
      <trkpt lat="50.19969" lon="4.15189">
        <ele>179</ele>
        <time>2009-02-25T13:07:44Z</time>
      </trkpt>
      <trkpt lat="50.19998" lon="4.15018">
        <ele>192</ele>
        <time>2009-02-25T13:07:44Z</time>
      </trkpt>
      <trkpt lat="50.19998" lon="4.14965">
        <ele>193</ele>
        <time>2009-02-25T13:07:44Z</time>
      </trkpt>
      <trkpt lat="50.19994" lon="4.14949">
        <ele>193</ele>
        <time>2009-02-25T13:07:44Z</time>
      </trkpt>
      <trkpt lat="50.19894" lon="4.14747">
        <ele>192</ele>
        <time>2009-02-25T13:07:44Z</time>
      </trkpt>
      <trkpt lat="50.19896" lon="4.14714">
        <ele>192</ele>
        <time>2009-02-25T13:07:44Z</time>
      </trkpt>
      <trkpt lat="50.19951" lon="4.14466">
        <ele>190</ele>
        <time>2009-02-25T13:07:44Z</time>
      </trkpt>
      <trkpt lat="50.19962" lon="4.14377">
        <ele>188</ele>
        <time>2009-02-25T13:07:44Z</time>
      </trkpt>
      <trkpt lat="50.19971" lon="4.14333">
        <ele>186</ele>
        <time>2009-02-25T13:07:44Z</time>
      </trkpt>
      <trkpt lat="50.20011" lon="4.14236">
        <ele>185</ele>
        <time>2009-02-25T13:07:44Z</time>
      </trkpt>
      <trkpt lat="50.20015" lon="4.14198">
        <ele>185</ele>
        <time>2009-02-25T13:07:44Z</time>
      </trkpt>
      <trkpt lat="50.20015" lon="4.14114">
        <ele>186</ele>
        <time>2009-02-25T13:07:44Z</time>
      </trkpt>
      <trkpt lat="50.20019" lon="4.14082">
        <ele>187</ele>
        <time>2009-02-25T13:07:44Z</time>
      </trkpt>
      <trkpt lat="50.20033" lon="4.14046">
        <ele>189</ele>
        <time>2009-02-25T13:07:44Z</time>
      </trkpt>
      <trkpt lat="50.20036" lon="4.13857">
        <ele>196</ele>
        <time>2009-02-25T13:07:44Z</time>
      </trkpt>
      <trkpt lat="50.20044" lon="4.13795">
        <ele>198</ele>
        <time>2009-02-25T13:07:44Z</time>
      </trkpt>
      <trkpt lat="50.20061" lon="4.13753">
        <ele>199</ele>
        <time>2009-02-25T13:07:44Z</time>
      </trkpt>
      <trkpt lat="50.20178" lon="4.13688">
        <ele>195</ele>
        <time>2009-02-25T13:07:44Z</time>
      </trkpt>
      <trkpt lat="50.20309" lon="4.13634">
        <ele>188</ele>
        <time>2009-02-25T13:07:44Z</time>
      </trkpt>
      <trkpt lat="50.20425" lon="4.13587">
        <ele>186</ele>
        <time>2009-02-25T13:07:44Z</time>
      </trkpt>
      <trkpt lat="50.20442" lon="4.13575">
        <ele>186</ele>
        <time>2009-02-25T13:07:44Z</time>
      </trkpt>
      <trkpt lat="50.20447" lon="4.1332">
        <ele>193</ele>
        <time>2009-02-25T13:07:44Z</time>
      </trkpt>
      <trkpt lat="50.20379" lon="4.12828">
        <ele>201</ele>
        <time>2009-02-25T13:07:44Z</time>
      </trkpt>
      <trkpt lat="50.20202" lon="4.12912">
        <ele>194</ele>
        <time>2009-02-25T13:07:44Z</time>
      </trkpt>
      <trkpt lat="50.20184" lon="4.12933">
        <ele>193</ele>
        <time>2009-02-25T13:07:44Z</time>
      </trkpt>
      <trkpt lat="50.20136" lon="4.13007">
        <ele>196</ele>
        <time>2009-02-25T13:07:44Z</time>
      </trkpt>
      <trkpt lat="50.20111" lon="4.13027">
        <ele>198</ele>
        <time>2009-02-25T13:07:44Z</time>
      </trkpt>
      <trkpt lat="50.19945" lon="4.13092">
        <ele>204</ele>
        <time>2009-02-25T13:07:44Z</time>
      </trkpt>
      <trkpt lat="50.1993" lon="4.13105">
        <ele>205</ele>
        <time>2009-02-25T13:07:44Z</time>
      </trkpt>
      <trkpt lat="50.19903" lon="4.13146">
        <ele>207</ele>
        <time>2009-02-25T13:07:44Z</time>
      </trkpt>
      <trkpt lat="50.1985" lon="4.1319">
        <ele>210</ele>
        <time>2009-02-25T13:07:44Z</time>
      </trkpt>
      <trkpt lat="50.19762" lon="4.13271">
        <ele>211</ele>
        <time>2009-02-25T13:07:44Z</time>
      </trkpt>
      <trkpt lat="50.1973" lon="4.13275">
        <ele>211</ele>
        <time>2009-02-25T13:07:44Z</time>
      </trkpt>
      <trkpt lat="50.19687" lon="4.13265">
        <ele>212</ele>
        <time>2009-02-25T13:07:44Z</time>
      </trkpt>
      <trkpt lat="50.19657" lon="4.13253">
        <ele>212</ele>
        <time>2009-02-25T13:07:44Z</time>
      </trkpt>
      <trkpt lat="50.19613" lon="4.13223">
        <ele>212</ele>
        <time>2009-02-25T13:07:44Z</time>
      </trkpt>
      <trkpt lat="50.19535" lon="4.13166">
        <ele>209</ele>
        <time>2009-02-25T13:07:44Z</time>
      </trkpt>
      <trkpt lat="50.19509" lon="4.13115">
        <ele>209</ele>
        <time>2009-02-25T13:07:44Z</time>
      </trkpt>
      <trkpt lat="50.19475" lon="4.13141">
        <ele>208</ele>
        <time>2009-02-25T13:07:44Z</time>
      </trkpt>
      <trkpt lat="50.19465" lon="4.1323">
        <ele>210</ele>
        <time>2009-02-25T13:07:44Z</time>
      </trkpt>
      <trkpt lat="50.1945" lon="4.13297">
        <ele>212</ele>
        <time>2009-02-25T13:07:44Z</time>
      </trkpt>
      <trkpt lat="50.19389" lon="4.13515">
        <ele>206</ele>
        <time>2009-02-25T13:07:44Z</time>
      </trkpt>
      <trkpt lat="50.19397" lon="4.13632">
        <ele>208</ele>
        <time>2009-02-25T13:07:44Z</time>
      </trkpt>
      <trkpt lat="50.19421" lon="4.13679">
        <ele>211</ele>
        <time>2009-02-25T13:07:44Z</time>
      </trkpt>
      <trkpt lat="50.19432" lon="4.13755">
        <ele>214</ele>
        <time>2009-02-25T13:07:44Z</time>
      </trkpt>
      <trkpt lat="50.19444" lon="4.13799">
        <ele>214</ele>
        <time>2009-02-25T13:07:44Z</time>
      </trkpt>
      <trkpt lat="50.19491" lon="4.13872">
        <ele>216</ele>
        <time>2009-02-25T13:07:44Z</time>
      </trkpt>
      <trkpt lat="50.19559" lon="4.14007">
        <ele>215</ele>
        <time>2009-02-25T13:07:44Z</time>
      </trkpt>
      <trkpt lat="50.19604" lon="4.14093">
        <ele>214</ele>
        <time>2009-02-25T13:07:44Z</time>
      </trkpt>
      <trkpt lat="50.19697" lon="4.14228">
        <ele>209</ele>
        <time>2009-02-25T13:07:44Z</time>
      </trkpt>
      <trkpt lat="50.19741" lon="4.14391">
        <ele>206</ele>
        <time>2009-02-25T13:07:44Z</time>
      </trkpt>
      <trkpt lat="50.19741" lon="4.1441">
        <ele>205</ele>
        <time>2009-02-25T13:07:44Z</time>
      </trkpt>
      <trkpt lat="50.19732" lon="4.1447">
        <ele>204</ele>
        <time>2009-02-25T13:07:44Z</time>
      </trkpt>
      <trkpt lat="50.1974" lon="4.14507">
        <ele>203</ele>
        <time>2009-02-25T13:07:44Z</time>
      </trkpt>
      <trkpt lat="50.19865" lon="4.14749">
        <ele>193</ele>
        <time>2009-02-25T13:07:44Z</time>
      </trkpt>
      <trkpt lat="50.19824" lon="4.14789">
        <ele>194</ele>
        <time>2009-02-25T13:07:44Z</time>
      </trkpt>
      <trkpt lat="50.19797" lon="4.14831">
        <ele>194</ele>
        <time>2009-02-25T13:07:44Z</time>
      </trkpt>
      <trkpt lat="50.19743" lon="4.1474">
        <ele>198</ele>
        <time>2009-02-25T13:07:44Z</time>
      </trkpt>
      <trkpt lat="50.19726" lon="4.14795">
        <ele>198</ele>
        <time>2009-02-25T13:07:44Z</time>
      </trkpt>
      <trkpt lat="50.19711" lon="4.14871">
        <ele>196</ele>
        <time>2009-02-25T13:07:44Z</time>
      </trkpt>
      <trkpt lat="50.19705" lon="4.14936">
        <ele>194</ele>
        <time>2009-02-25T13:07:44Z</time>
      </trkpt>
      <trkpt lat="50.19708" lon="4.14979">
        <ele>193</ele>
        <time>2009-02-25T13:07:44Z</time>
      </trkpt>
      <trkpt lat="50.19721" lon="4.15024">
        <ele>191</ele>
        <time>2009-02-25T13:07:44Z</time>
      </trkpt>
      <trkpt lat="50.19719" lon="4.15115">
        <ele>186</ele>
        <time>2009-02-25T13:07:44Z</time>
      </trkpt>
      <trkpt lat="50.19711" lon="4.15164">
        <ele>181</ele>
        <time>2009-02-25T13:07:44Z</time>
      </trkpt>
      <trkpt lat="50.19692" lon="4.15234">
        <ele>176</ele>
        <time>2009-02-25T13:07:44Z</time>
      </trkpt>
      <trkpt lat="50.19661" lon="4.15319">
        <ele>179</ele>
        <time>2009-02-25T13:07:44Z</time>
      </trkpt>
      <trkpt lat="50.19661" lon="4.15339">
        <ele>181</ele>
        <time>2009-02-25T13:07:44Z</time>
      </trkpt>
      <trkpt lat="50.1968" lon="4.15375">
        <ele>182</ele>
        <time>2009-02-25T13:07:44Z</time>
      </trkpt>
      <trkpt lat="50.19698" lon="4.15439">
        <ele>185</ele>
        <time>2009-02-25T13:07:44Z</time>
      </trkpt>
      <trkpt lat="50.19711" lon="4.15461">
        <ele>185</ele>
        <time>2009-02-25T13:07:44Z</time>
      </trkpt>
      <trkpt lat="50.19742" lon="4.15493">
        <ele>184</ele>
        <time>2009-02-25T13:07:44Z</time>
      </trkpt>
      <trkpt lat="50.19781" lon="4.15513">
        <ele>183</ele>
        <time>2009-02-25T13:07:44Z</time>
      </trkpt>
      <trkpt lat="50.19856" lon="4.15559">
        <ele>184</ele>
        <time>2009-02-25T13:07:44Z</time>
      </trkpt>
      <trkpt lat="50.19887" lon="4.15559">
        <ele>184</ele>
        <time>2009-02-25T13:07:44Z</time>
      </trkpt>
      <trkpt lat="50.19895" lon="4.15554">
        <ele>184</ele>
        <time>2009-02-25T13:07:44Z</time>
      </trkpt>
      <trkpt lat="50.19913" lon="4.15512">
        <ele>183</ele>
        <time>2009-02-25T13:07:44Z</time>
      </trkpt>
      <trkpt lat="50.19917" lon="4.15549">
        <ele>183</ele>
        <time>2009-02-25T13:07:44Z</time>
      </trkpt>
      <trkpt lat="50.19918" lon="4.15601">
        <ele>185</ele>
        <time>2009-02-25T13:07:44Z</time>
      </trkpt>
      <trkpt lat="50.19913" lon="4.1564">
        <ele>185</ele>
        <time>2009-02-25T13:07:44Z</time>
      </trkpt>
      <trkpt lat="50.199" lon="4.15688">
        <ele>187</ele>
        <time>2009-02-25T13:07:44Z</time>
      </trkpt>
      <trkpt lat="50.19795" lon="4.15906">
        <ele>195</ele>
        <time>2009-02-25T13:07:44Z</time>
      </trkpt>
      <trkpt lat="50.19721" lon="4.16027">
        <ele>201</ele>
        <time>2009-02-25T13:07:44Z</time>
      </trkpt>
      <trkpt lat="50.19652" lon="4.16101">
        <ele>207</ele>
        <time>2009-02-25T13:07:44Z</time>
      </trkpt>
      <trkpt lat="50.19635" lon="4.1615">
        <ele>209</ele>
        <time>2009-02-25T13:07:44Z</time>
      </trkpt>
      <trkpt lat="50.19616" lon="4.16286">
        <ele>214</ele>
        <time>2009-02-25T13:07:44Z</time>
      </trkpt>
      <trkpt lat="50.19598" lon="4.16352">
        <ele>216</ele>
        <time>2009-02-25T13:07:44Z</time>
      </trkpt>
      <trkpt lat="50.19553" lon="4.16437">
        <ele>220</ele>
        <time>2009-02-25T13:07:44Z</time>
      </trkpt>
      <trkpt lat="50.19512" lon="4.16495">
        <ele>222</ele>
        <time>2009-02-25T13:07:44Z</time>
      </trkpt>
      <trkpt lat="50.19488" lon="4.16549">
        <ele>224</ele>
        <time>2009-02-25T13:07:44Z</time>
      </trkpt>
      <trkpt lat="50.19452" lon="4.16661">
        <ele>227</ele>
        <time>2009-02-25T13:07:44Z</time>
      </trkpt>
      <trkpt lat="50.19392" lon="4.16794">
        <ele>231</ele>
        <time>2009-02-25T13:07:44Z</time>
      </trkpt>
      <trkpt lat="50.1934" lon="4.16885">
        <ele>233</ele>
        <time>2009-02-25T13:07:44Z</time>
      </trkpt>
      <trkpt lat="50.19324" lon="4.16929">
        <ele>234</ele>
        <time>2009-02-25T13:07:44Z</time>
      </trkpt>
      <trkpt lat="50.19315" lon="4.16968">
        <ele>235</ele>
        <time>2009-02-25T13:07:44Z</time>
      </trkpt>
      <trkpt lat="50.19297" lon="4.17092">
        <ele>236</ele>
        <time>2009-02-25T13:07:44Z</time>
      </trkpt>
      <trkpt lat="50.19288" lon="4.17196">
        <ele>236</ele>
        <time>2009-02-25T13:07:44Z</time>
      </trkpt>
      <trkpt lat="50.19273" lon="4.17372">
        <ele>237</ele>
        <time>2009-02-25T13:07:44Z</time>
      </trkpt>
      <trkpt lat="50.19258" lon="4.17577">
        <ele>237</ele>
        <time>2009-02-25T13:07:44Z</time>
      </trkpt>
      <trkpt lat="50.19242" lon="4.17712">
        <ele>237</ele>
        <time>2009-02-25T13:07:44Z</time>
      </trkpt>
      <trkpt lat="50.19234" lon="4.17769">
        <ele>237</ele>
        <time>2009-02-25T13:07:44Z</time>
      </trkpt>
      <trkpt lat="50.19219" lon="4.17853">
        <ele>236</ele>
        <time>2009-02-25T13:07:44Z</time>
      </trkpt>
      <trkpt lat="50.19223" lon="4.17878">
        <ele>236</ele>
        <time>2009-02-25T13:07:44Z</time>
      </trkpt>
      <trkpt lat="50.19241" lon="4.17894">
        <ele>236</ele>
        <time>2009-02-25T13:07:44Z</time>
      </trkpt>
      <trkpt lat="50.19334" lon="4.17896">
        <ele>230</ele>
        <time>2009-02-25T13:07:44Z</time>
      </trkpt>
      <trkpt lat="50.19489" lon="4.17893">
        <ele>220</ele>
        <time>2009-02-25T13:07:44Z</time>
      </trkpt>
      <trkpt lat="50.19511" lon="4.17887">
        <ele>219</ele>
        <time>2009-02-25T13:07:44Z</time>
      </trkpt>
      <trkpt lat="50.19644" lon="4.17818">
        <ele>205</ele>
        <time>2009-02-25T13:07:44Z</time>
      </trkpt>
      <trkpt lat="50.19662" lon="4.17818">
        <ele>203</ele>
        <time>2009-02-25T13:07:44Z</time>
      </trkpt>
      <trkpt lat="50.19722" lon="4.17844">
        <ele>198</ele>
        <time>2009-02-25T13:07:44Z</time>
      </trkpt>
      <trkpt lat="50.19897" lon="4.17897">
        <ele>192</ele>
        <time>2009-02-25T13:07:44Z</time>
      </trkpt>
      <trkpt lat="50.19933" lon="4.17902">
        <ele>192</ele>
        <time>2009-02-25T13:07:44Z</time>
      </trkpt>
      <trkpt lat="50.1995" lon="4.17739">
        <ele>191</ele>
        <time>2009-02-25T13:07:44Z</time>
      </trkpt>
      <trkpt lat="50.19985" lon="4.17565">
        <ele>190</ele>
        <time>2009-02-25T13:07:44Z</time>
      </trkpt>
      <trkpt lat="50.20081" lon="4.1759">
        <ele>185</ele>
        <time>2009-02-25T13:07:44Z</time>
      </trkpt>
      <trkpt lat="50.20209" lon="4.17637">
        <ele>190</ele>
        <time>2009-02-25T13:07:44Z</time>
      </trkpt>
      <trkpt lat="50.20264" lon="4.17676">
        <ele>195</ele>
        <time>2009-02-25T13:07:44Z</time>
      </trkpt>
      <trkpt lat="50.20314" lon="4.17578">
        <ele>197</ele>
        <time>2009-02-25T13:07:44Z</time>
      </trkpt>
      <trkpt lat="50.20304" lon="4.1753">
        <ele>197</ele>
        <time>2009-02-25T13:07:44Z</time>
      </trkpt>
      <trkpt lat="50.20278" lon="4.17334">
        <ele>193</ele>
        <time>2009-02-25T13:07:44Z</time>
      </trkpt>
      <trkpt lat="50.20277" lon="4.17299">
        <ele>193</ele>
        <time>2009-02-25T13:07:44Z</time>
      </trkpt>
      <trkpt lat="50.20285" lon="4.17108">
        <ele>187</ele>
        <time>2009-02-25T13:07:44Z</time>
      </trkpt>
      <trkpt lat="50.20276" lon="4.17092">
        <ele>187</ele>
        <time>2009-02-25T13:07:44Z</time>
      </trkpt>
      <trkpt lat="50.20243" lon="4.1707">
        <ele>185</ele>
        <time>2009-02-25T13:07:44Z</time>
      </trkpt>
      <trkpt lat="50.20225" lon="4.17069">
        <ele>185</ele>
        <time>2009-02-25T13:07:44Z</time>
      </trkpt>
      <trkpt lat="50.2015" lon="4.17082">
        <ele>186</ele>
        <time>2009-02-25T13:07:44Z</time>
      </trkpt>
      <trkpt lat="50.20136" lon="4.17136">
        <ele>186</ele>
        <time>2009-02-25T13:07:44Z</time>
      </trkpt>
      <trkpt lat="50.20116" lon="4.17179">
        <ele>187</ele>
        <time>2009-02-25T13:07:44Z</time>
      </trkpt>
      <trkpt lat="50.20105" lon="4.17183">
        <ele>187</ele>
        <time>2009-02-25T13:07:44Z</time>
      </trkpt>
      <trkpt lat="50.20041" lon="4.1717">
        <ele>190</ele>
        <time>2009-02-25T13:07:44Z</time>
      </trkpt>
      <trkpt lat="50.20047" lon="4.1692">
        <ele>190</ele>
        <time>2009-02-25T13:07:44Z</time>
      </trkpt>
      <trkpt lat="50.20058" lon="4.16881">
        <ele>190</ele>
        <time>2009-02-25T13:07:44Z</time>
      </trkpt>
      <trkpt lat="50.20064" lon="4.16762">
        <ele>188</ele>
        <time>2009-02-25T13:07:44Z</time>
      </trkpt>
      <trkpt lat="50.20101" lon="4.16693">
        <ele>187</ele>
        <time>2009-02-25T13:07:44Z</time>
      </trkpt>
      <trkpt lat="50.20111" lon="4.16663">
        <ele>187</ele>
        <time>2009-02-25T13:07:44Z</time>
      </trkpt>
      <trkpt lat="50.2011" lon="4.16634">
        <ele>186</ele>
        <time>2009-02-25T13:07:44Z</time>
      </trkpt>
      <trkpt lat="50.20105" lon="4.16552">
        <ele>186</ele>
        <time>2009-02-25T13:07:44Z</time>
      </trkpt>
      <trkpt lat="50.20107" lon="4.16512">
        <ele>185</ele>
        <time>2009-02-25T13:07:44Z</time>
      </trkpt>
      <trkpt lat="50.2013" lon="4.16438">
        <ele>181</ele>
        <time>2009-02-25T13:07:44Z</time>
      </trkpt>
      <trkpt lat="50.20133" lon="4.16394">
        <ele>180</ele>
        <time>2009-02-25T13:07:44Z</time>
      </trkpt>
      <trkpt lat="50.20123" lon="4.16244">
        <ele>180</ele>
        <time>2009-02-25T13:07:44Z</time>
      </trkpt>
      <trkpt lat="50.2012" lon="4.1616">
        <ele>180</ele>
        <time>2009-02-25T13:07:44Z</time>
      </trkpt>
      <trkpt lat="50.20115" lon="4.16137">
        <ele>181</ele>
        <time>2009-02-25T13:07:44Z</time>
      </trkpt>
      <trkpt lat="50.20124" lon="4.16097">
        <ele>180</ele>
        <time>2009-02-25T13:07:44Z</time>
      </trkpt>
      <trkpt lat="50.20124" lon="4.16089">
        <ele>181</ele>
        <time>2009-02-25T13:07:44Z</time>
      </trkpt>
      <trkpt lat="50.20092" lon="4.16087">
        <ele>186</ele>
        <time>2009-02-25T13:07:44Z</time>
      </trkpt>
      <trkpt lat="50.20099" lon="4.16033">
        <ele>186</ele>
        <time>2009-02-25T13:07:44Z</time>
      </trkpt>
      <trkpt lat="50.20107" lon="4.15944">
        <ele>186</ele>
        <time>2009-02-25T13:07:44Z</time>
      </trkpt>
      <trkpt lat="50.20121" lon="4.15816">
        <ele>185</ele>
        <time>2009-02-25T13:07:44Z</time>
      </trkpt>
      <trkpt lat="50.20118" lon="4.15753">
        <ele>186</ele>
        <time>2009-02-25T13:07:44Z</time>
      </trkpt>
      <trkpt lat="50.20111" lon="4.15705">
        <ele>186</ele>
        <time>2009-02-25T13:07:44Z</time>
      </trkpt>
      <trkpt lat="50.20121" lon="4.1562">
        <ele>187</ele>
        <time>2009-02-25T13:07:44Z</time>
      </trkpt>
      <trkpt lat="50.20126" lon="4.15535">
        <ele>186</ele>
        <time>2009-02-25T13:07:44Z</time>
      </trkpt>
      <trkpt lat="50.20118" lon="4.15496">
        <ele>184</ele>
        <time>2009-02-25T13:07:44Z</time>
      </trkpt>
      <trkpt lat="50.20062" lon="4.15429">
        <ele>179</ele>
        <time>2009-02-25T13:07:44Z</time>
      </trkpt>
      <trkpt lat="50.20042" lon="4.15428">
        <ele>179</ele>
        <time>2009-02-25T13:07:44Z</time>
      </trkpt>
      <trkpt lat="50.20019" lon="4.15435">
        <ele>179</ele>
        <time>2009-02-25T13:07:44Z</time>
      </trkpt>
      <trkpt lat="50.19946" lon="4.15417">
        <ele>179</ele>
        <time>2009-02-25T13:07:44Z</time>
      </trkpt>
    </trkseg>
  </trk>
</gpx>